RYR209 LICA-LOWI

Flight info

Callsign RYR209
Flight time N/A
Altitude 38000
Route ARBUM M620 EVINO DCT GOSEB DCT EKMIL DCT IBENI DCT PLA DCT OTFOX DCT URAVA DCT VEKEN DCT NANIT NANIT2A
Aircraft B738/M-SDE2E3FGHIRWXY/LB1

Departure

Time 2026-04-23 23:35
Airport Lamezia Terme Sant'Eufemia International Airport (LICA)

Arrival

Time N/A
Airport Innsbruck Airport (LOWI)
Time Latitude Longitude Altitude Speed Heading
2026-04-23 23:21 38.90858 16.24606 40 ft 0 kts 53°
2026-04-23 23:22 38.90859 16.24607 40 ft 1 kts 53°
2026-04-23 23:22 38.90848 16.24589 39 ft 4 kts 51°
2026-04-23 23:22 38.90833 16.24573 35 ft 4 kts 13°
2026-04-23 23:23 38.90812 16.24574 37 ft 4 kts 328°
2026-04-23 23:23 38.90798 16.24592 38 ft 4 kts 299°
2026-04-23 23:23 38.90792 16.24608 40 ft 0 kts 283°
2026-04-23 23:26 38.90793 16.24605 40 ft 3 kts 283°
2026-04-23 23:26 38.90801 16.24545 40 ft 13 kts 279°
2026-04-23 23:26 38.90817 16.24420 39 ft 22 kts 279°
2026-04-23 23:27 38.90830 16.24265 37 ft 21 kts 264°
2026-04-23 23:27 38.90783 16.24148 37 ft 15 kts 255°
2026-04-23 23:27 38.90783 16.24077 36 ft 6 kts 276°
2026-04-23 23:27 38.90787 16.24038 36 ft 7 kts 278°
2026-04-23 23:28 38.90795 16.23975 35 ft 12 kts 278°
2026-04-23 23:28 38.90805 16.23875 35 ft 17 kts 271°
2026-04-23 23:28 38.90816 16.23760 34 ft 7 kts 281°
2026-04-23 23:28 38.90836 16.23621 33 ft 36 kts 279°
2026-04-23 23:29 38.90869 16.23300 30 ft 46 kts 279°
2026-04-23 23:29 38.90849 16.23056 29 ft 28 kts 245°
2026-04-23 23:29 38.90797 16.22960 28 ft 0 kts 227°
2026-04-23 23:30 38.90774 16.22931 28 ft 15 kts 215°
2026-04-23 23:30 38.90691 16.22972 29 ft 18 kts 108°
2026-04-23 23:31 38.90681 16.23031 30 ft 4 kts 99°
2026-04-23 23:31 38.90680 16.23036 28 ft 0 kts 99°
2026-04-23 23:34 38.90680 16.23041 28 ft 10 kts 99°
2026-04-23 23:34 38.90640 16.23384 33 ft 83 kts 98°
2026-04-23 23:35 38.90547 16.24206 37 ft 144 kts 96°
2026-04-23 23:35 38.90414 16.25309 410 ft 168 kts 99°
2026-04-23 23:35 38.90190 16.26658 836 ft 190 kts 102°
2026-04-23 23:35 38.90019 16.27950 1876 ft 173 kts 96°
2026-04-23 23:36 38.89871 16.29239 2485 ft 188 kts 99°
2026-04-23 23:36 38.89681 16.30656 2749 ft 207 kts 99°
2026-04-23 23:36 38.89471 16.32184 2899 ft 223 kts 99°
2026-04-23 23:36 38.89245 16.33813 3091 ft 234 kts 99°
2026-04-23 23:37 38.89015 16.35470 3421 ft 240 kts 99°
2026-04-23 23:37 38.88770 16.37234 3976 ft 239 kts 99°
2026-04-23 23:37 38.88518 16.39026 4602 ft 244 kts 99°
2026-04-23 23:37 38.88281 16.40725 5372 ft 243 kts 99°
2026-04-23 23:38 38.88144 16.42408 5918 ft 251 kts 85°
2026-04-23 23:38 38.88533 16.44171 6331 ft 263 kts 59°
2026-04-23 23:38 38.89556 16.45622 6928 ft 265 kts 32°
2026-04-23 23:38 38.90940 16.46336 7544 ft 270 kts
2026-04-23 23:39 38.92449 16.46179 8232 ft 269 kts 340°
2026-04-23 23:39 38.93729 16.45205 8991 ft 270 kts 316°
2026-04-23 23:39 38.94568 16.43638 9563 ft 278 kts 291°
2026-04-23 23:39 38.94784 16.41673 10207 ft 284 kts 265°
2026-04-23 23:40 38.94559 16.40357 10538 ft 292 kts 253°
2026-04-23 23:40 38.93968 16.38390 10768 ft 310 kts 250°
2026-04-23 23:40 38.93300 16.36272 10934 ft 329 kts 250°
2026-04-23 23:40 38.92619 16.34045 11086 ft 347 kts 251°
2026-04-23 23:41 38.92004 16.31683 11241 ft 362 kts 261°
2026-04-23 23:41 38.91862 16.29105 11606 ft 367 kts 276°
2026-04-23 23:41 38.92220 16.26523 12117 ft 369 kts 288°
2026-04-23 23:41 38.92913 16.24105 12668 ft 370 kts 299°
2026-04-23 23:42 38.94139 16.21924 13232 ft 369 kts 315°
2026-04-23 23:42 38.95731 16.19895 13860 ft 371 kts 318°
2026-04-23 23:42 38.97254 16.18043 14361 ft 374 kts 319°
2026-04-23 23:42 38.98844 16.16133 14880 ft 377 kts 319°
2026-04-23 23:43 39.00461 16.14188 15372 ft 380 kts 319°
2026-04-23 23:43 39.02019 16.12305 15880 ft 383 kts 319°
2026-04-23 23:43 39.03762 16.10185 16455 ft 385 kts 319°
2026-04-23 23:43 39.05514 16.08042 16978 ft 389 kts 319°
2026-04-23 23:44 39.07219 16.05948 17466 ft 393 kts 319°
2026-04-23 23:44 39.08979 16.03779 17983 ft 396 kts 319°
2026-04-23 23:44 39.10774 16.01562 18491 ft 398 kts 319°
2026-04-23 23:44 39.12511 15.99415 18902 ft 402 kts 319°
2026-04-23 23:45 39.14205 15.97318 19282 ft 405 kts 319°
2026-04-23 23:45 39.16047 15.95037 19706 ft 409 kts 319°
2026-04-23 23:45 39.17762 15.92911 20103 ft 411 kts 319°
2026-04-23 23:45 39.19466 15.90796 20489 ft 414 kts 319°
2026-04-23 23:46 39.21153 15.88702 20832 ft 418 kts 319°
2026-04-23 23:46 39.22914 15.86512 21205 ft 421 kts 319°
2026-04-23 23:46 39.24722 15.84264 21604 ft 423 kts 319°
2026-04-23 23:46 39.26491 15.82066 21945 ft 427 kts 319°
2026-04-23 23:47 39.28365 15.79748 22289 ft 430 kts 320°
2026-04-23 23:47 39.30372 15.77424 22670 ft 432 kts 322°
2026-04-23 23:47 39.32441 15.75144 23061 ft 434 kts 323°
2026-04-23 23:47 39.34445 15.72978 23409 ft 437 kts 323°
2026-04-23 23:48 39.36463 15.70800 23717 ft 440 kts 323°
2026-04-23 23:48 39.38515 15.68573 24027 ft 442 kts 323°
2026-04-23 23:48 39.40527 15.66372 24383 ft 443 kts 323°
2026-04-23 23:48 39.42378 15.64336 24710 ft 443 kts 323°
2026-04-23 23:49 39.46442 15.59838 25349 ft 446 kts 322°
2026-04-23 23:49 39.48501 15.57551 25665 ft 447 kts 322°
2026-04-23 23:49 39.50569 15.55252 25966 ft 448 kts 322°
2026-04-23 23:50 39.52722 15.52856 26262 ft 450 kts 322°
2026-04-23 23:50 39.54802 15.50540 26560 ft 451 kts 322°
2026-04-23 23:50 39.56927 15.48174 26871 ft 452 kts 322°
2026-04-23 23:50 39.59059 15.45796 27169 ft 453 kts 322°
2026-04-23 23:51 39.61203 15.43403 27403 ft 455 kts 322°
2026-04-23 23:51 39.63354 15.41000 27706 ft 456 kts 322°
2026-04-23 23:51 39.65506 15.38594 28010 ft 456 kts 322°
2026-04-23 23:51 39.67671 15.36173 28378 ft 455 kts 322°
2026-04-23 23:52 39.69737 15.33975 28774 ft 451 kts 327°
2026-04-23 23:52 39.71757 15.32265 29168 ft 446 kts 333°
2026-04-23 23:52 39.74118 15.30713 29602 ft 441 kts 340°
2026-04-23 23:52 39.76688 15.29487 29992 ft 438 kts 343°
2026-04-23 23:53 39.79270 15.28341 30305 ft 438 kts 343°
2026-04-23 23:53 39.81806 15.27235 30572 ft 438 kts 343°
2026-04-23 23:53 39.84302 15.26145 30839 ft 437 kts 343°
2026-04-23 23:53 39.86767 15.25058 31126 ft 436 kts 343°
2026-04-23 23:54 39.89266 15.23946 31400 ft 436 kts 343°
2026-04-23 23:54 39.91888 15.22768 31699 ft 435 kts 343°
2026-04-23 23:54 39.94384 15.21639 31992 ft 434 kts 343°
2026-04-23 23:54 39.96809 15.20538 32254 ft 434 kts 343°
2026-04-23 23:55 39.99318 15.19394 32526 ft 433 kts 343°
2026-04-23 23:55 40.01701 15.18306 32794 ft 432 kts 343°
2026-04-23 23:55 40.04238 15.17147 33083 ft 432 kts 343°
2026-04-23 23:55 40.06619 15.16057 33322 ft 431 kts 343°
2026-04-23 23:56 40.09208 15.14872 33605 ft 430 kts 343°
2026-04-23 23:56 40.11691 15.13735 33872 ft 430 kts 343°
2026-04-23 23:56 40.14269 15.12554 34122 ft 429 kts 343°
2026-04-23 23:56 40.16764 15.11410 34331 ft 429 kts 343°
2026-04-23 23:57 40.19246 15.10271 34504 ft 430 kts 343°
2026-04-23 23:57 40.21647 15.09168 34648 ft 431 kts 343°
2026-04-23 23:57 40.24281 15.07958 34840 ft 431 kts 343°
2026-04-23 23:57 40.26745 15.06826 35047 ft 431 kts 343°
2026-04-23 23:58 40.29284 15.05658 35225 ft 432 kts 343°
2026-04-23 23:58 40.31762 15.04516 35389 ft 432 kts 343°
2026-04-23 23:58 40.34242 15.03373 35563 ft 432 kts 343°
2026-04-23 23:58 40.36733 15.02223 35713 ft 432 kts 343°
2026-04-23 23:59 40.39207 15.01081 35853 ft 434 kts 343°
2026-04-23 23:59 40.41724 14.99918 36015 ft 434 kts 343°
2026-04-23 23:59 40.44164 14.98790 36205 ft 433 kts 343°
2026-04-23 23:59 40.46785 14.97576 36347 ft 434 kts 343°
2026-04-24 00:00 40.49260 14.96430 36462 ft 436 kts 343°
2026-04-24 00:00 40.51879 14.95215 36624 ft 436 kts 343°
2026-04-24 00:00 40.54430 14.94032 36815 ft 435 kts 343°
2026-04-24 00:00 40.56922 14.92873 36979 ft 435 kts 343°
2026-04-24 00:01 40.59422 14.91711 37090 ft 436 kts 343°
2026-04-24 00:01 40.61953 14.90534 37216 ft 437 kts 343°
2026-04-24 00:01 40.64448 14.89374 37389 ft 437 kts 343°
2026-04-24 00:01 40.66986 14.88191 37550 ft 437 kts 343°
2026-04-24 00:02 40.69617 14.86965 37697 ft 437 kts 343°
2026-04-24 00:02 40.72111 14.85801 37822 ft 438 kts 343°
2026-04-24 00:02 40.74630 14.84624 37934 ft 438 kts 343°
2026-04-24 00:02 40.77160 14.83442 38070 ft 438 kts 343°
2026-04-24 00:03 40.82175 14.81096 38143 ft 440 kts 343°
2026-04-24 00:03 40.87240 14.78722 38156 ft 439 kts 343°
2026-04-24 00:04 40.92305 14.76343 38164 ft 438 kts 343°
2026-04-24 00:04 40.97391 14.73952 38175 ft 437 kts 343°
2026-04-24 00:05 41.02490 14.71550 38175 ft 436 kts 343°
2026-04-24 00:05 41.07517 14.69179 38161 ft 436 kts 343°
2026-04-24 00:06 41.12413 14.66865 38170 ft 436 kts 343°
2026-04-24 00:06 41.17395 14.64508 38174 ft 436 kts 343°
2026-04-24 00:07 41.22472 14.62100 38182 ft 435 kts 343°
2026-04-24 00:07 41.27523 14.59702 38187 ft 435 kts 342°
2026-04-24 00:08 41.32592 14.57291 38185 ft 435 kts 342°
2026-04-24 00:08 41.37661 14.54875 38172 ft 436 kts 342°
2026-04-24 00:09 41.42705 14.52466 38181 ft 436 kts 342°
2026-04-24 00:09 41.47706 14.50074 38187 ft 437 kts 342°
2026-04-24 00:10 41.52794 14.47620 38188 ft 437 kts 341°
2026-04-24 00:10 41.57712 14.45052 38202 ft 438 kts 340°
2026-04-24 00:11 41.62602 14.42426 38204 ft 438 kts 340°
2026-04-24 00:11 41.67484 14.39809 38206 ft 439 kts 340°
2026-04-24 00:12 41.72427 14.37176 38189 ft 440 kts 340°
2026-04-24 00:12 41.77344 14.34560 38196 ft 440 kts 340°
2026-04-24 00:13 41.82313 14.31913 38197 ft 439 kts 340°
2026-04-24 00:13 41.87299 14.29252 38194 ft 439 kts 340°
2026-04-24 00:14 41.92242 14.26608 38201 ft 438 kts 340°
2026-04-24 00:14 41.97197 14.23954 38188 ft 436 kts 340°
2026-04-24 00:15 42.02119 14.21312 38194 ft 436 kts 340°
2026-04-24 00:15 42.06997 14.18688 38186 ft 435 kts 340°
2026-04-24 00:16 42.12044 14.15970 38207 ft 434 kts 340°
2026-04-24 00:16 42.16939 14.13598 38196 ft 431 kts 347°
2026-04-24 00:17 42.22113 14.12606 38210 ft 429 kts 357°
2026-04-24 00:17 42.27278 14.12110 38190 ft 429 kts 357°
2026-04-24 00:18 42.32597 14.11602 38195 ft 429 kts 357°
2026-04-24 00:18 42.37796 14.11059 38189 ft 430 kts 357°
2026-04-24 00:19 42.42824 14.10506 38186 ft 430 kts 356°
2026-04-24 00:19 42.48211 14.09899 38187 ft 431 kts 356°
2026-04-24 00:20 42.53379 14.09314 38171 ft 431 kts 356°
2026-04-24 00:20 42.58602 14.08724 38188 ft 432 kts 356°
2026-04-24 00:21 42.63822 14.08133 38179 ft 432 kts 356°
2026-04-24 00:21 42.68937 14.07554 38171 ft 432 kts 356°
2026-04-24 00:22 42.74074 14.06971 38174 ft 432 kts 357°
2026-04-24 00:22 42.79297 14.06378 38169 ft 432 kts 357°
2026-04-24 00:23 42.84269 14.05813 38167 ft 432 kts 357°
2026-04-24 00:23 42.89471 14.05219 38165 ft 432 kts 357°
2026-04-24 00:24 42.94664 14.04626 38160 ft 432 kts 357°
2026-04-24 00:24 42.99918 14.04025 38161 ft 432 kts 357°
2026-04-24 00:25 43.05161 14.03425 38161 ft 432 kts 357°
2026-04-24 00:25 43.10276 14.02838 38158 ft 432 kts 357°
2026-04-24 00:26 43.15566 14.02229 38161 ft 432 kts 357°
2026-04-24 00:26 43.19918 14.01728 38161 ft 432 kts 357°
2026-04-24 00:27 43.25168 14.01123 38160 ft 432 kts 357°
2026-04-24 00:27 43.30196 14.00542 38156 ft 432 kts 358°
2026-04-24 00:28 43.35266 13.99955 38157 ft 431 kts 358°
2026-04-24 00:28 43.40429 13.99357 38157 ft 431 kts 358°
2026-04-24 00:29 43.45462 13.98671 38141 ft 433 kts 351°
2026-04-24 00:29 43.50569 13.96248 38161 ft 438 kts 336°
2026-04-24 00:30 43.55116 13.92433 38167 ft 441 kts 330°
2026-04-24 00:30 43.59608 13.88345 38153 ft 442 kts 330°
2026-04-24 00:31 43.63879 13.84456 38155 ft 442 kts 330°
2026-04-24 00:31 43.68426 13.80356 38156 ft 442 kts 331°
2026-04-24 00:32 43.72829 13.76410 38154 ft 442 kts 331°
2026-04-24 00:32 43.77314 13.72397 38158 ft 443 kts 331°
2026-04-24 00:33 43.81638 13.68522 38154 ft 443 kts 331°
2026-04-24 00:33 43.86106 13.64510 38155 ft 444 kts 331°
2026-04-24 00:34 43.90503 13.60554 38159 ft 445 kts 331°
2026-04-24 00:34 43.94970 13.56527 38159 ft 445 kts 331°
2026-04-24 00:35 43.99301 13.52615 38152 ft 446 kts 331°
2026-04-24 00:35 44.03713 13.48624 38150 ft 446 kts 331°
2026-04-24 00:36 44.08184 13.44572 38151 ft 447 kts 331°
2026-04-24 00:36 44.12530 13.40626 38155 ft 447 kts 331°
2026-04-24 00:37 44.17104 13.36465 38152 ft 448 kts 331°
2026-04-24 00:37 44.21593 13.32373 38152 ft 448 kts 331°
2026-04-24 00:38 44.26155 13.28208 38147 ft 448 kts 331°
2026-04-24 00:38 44.30578 13.24163 38147 ft 448 kts 331°
2026-04-24 00:39 44.34979 13.20130 38147 ft 449 kts 331°
2026-04-24 00:39 44.39497 13.15982 38150 ft 449 kts 331°
2026-04-24 00:40 44.44036 13.11806 38154 ft 449 kts 332°
2026-04-24 00:40 44.48401 13.07783 38146 ft 449 kts 332°
2026-04-24 00:41 44.52740 13.03777 38149 ft 449 kts 332°
2026-04-24 00:41 44.57171 12.99679 38145 ft 449 kts 332°
2026-04-24 00:42 44.61457 12.95708 38143 ft 449 kts 332°
2026-04-24 00:42 44.65901 12.91583 38143 ft 450 kts 332°
2026-04-24 00:43 44.70195 12.87589 38142 ft 450 kts 332°
2026-04-24 00:43 44.74546 12.83536 38138 ft 450 kts 332°
2026-04-24 00:44 44.79022 12.79358 38137 ft 450 kts 332°
2026-04-24 00:44 44.83338 12.75322 38140 ft 450 kts 332°
2026-04-24 00:45 44.87816 12.71127 38133 ft 451 kts 332°
2026-04-24 00:45 44.92038 12.67163 38130 ft 451 kts 332°
2026-04-24 00:46 44.96212 12.63238 38135 ft 451 kts 332°
2026-04-24 00:46 45.00550 12.59150 38132 ft 451 kts 332°
2026-04-24 00:47 45.04548 12.55377 38131 ft 451 kts 332°
2026-04-24 00:47 45.09099 12.51075 38127 ft 452 kts 332°
2026-04-24 00:48 45.13582 12.46830 38123 ft 452 kts 332°
2026-04-24 00:48 45.17993 12.42644 38128 ft 452 kts 332°
2026-04-24 00:49 45.22456 12.38400 38125 ft 452 kts 332°
2026-04-24 00:49 45.26732 12.34326 38136 ft 452 kts 332°
2026-04-24 00:50 45.31246 12.30017 38120 ft 452 kts 332°
2026-04-24 00:50 45.35652 12.25804 38130 ft 452 kts 332°
2026-04-24 00:51 45.40050 12.21590 38129 ft 452 kts 332°
2026-04-24 00:51 45.44311 12.17499 38131 ft 452 kts 332°
2026-04-24 00:52 45.48913 12.13073 38124 ft 452 kts 332°
2026-04-24 00:52 45.53700 12.08460 38129 ft 451 kts 332°
2026-04-24 00:53 45.58413 12.03909 38131 ft 451 kts 332°
2026-04-24 00:53 45.62900 11.99567 38127 ft 451 kts 331°
2026-04-24 00:54 45.67281 11.95335 38132 ft 450 kts 333°
2026-04-24 00:54 45.71727 11.91497 38127 ft 447 kts 336°
2026-04-24 00:55 45.76177 11.87894 38132 ft 447 kts 336°
2026-04-24 00:55 45.80617 11.84292 38131 ft 447 kts 336°
2026-04-24 00:56 45.85275 11.80455 38138 ft 447 kts 335°
2026-04-24 00:56 45.89696 11.76774 38131 ft 447 kts 335°
2026-04-24 00:57 45.93957 11.73208 38153 ft 447 kts 335°
2026-04-24 00:58 46.00701 11.67546 38143 ft 448 kts 335°
2026-04-24 00:58 46.05137 11.63814 38139 ft 448 kts 335°
2026-04-24 00:59 46.08070 11.61343 38144 ft 448 kts 335°
2026-04-24 00:59 46.12784 11.57366 38150 ft 449 kts 335°
2026-04-24 01:00 46.17374 11.53485 38195 ft 448 kts 335°
2026-04-24 01:00 46.21792 11.49744 37980 ft 452 kts 335°
2026-04-24 01:00 46.26351 11.45884 36945 ft 456 kts 335°
2026-04-24 01:01 46.30956 11.41955 36040 ft 452 kts 335°
2026-04-24 01:01 46.35507 11.38079 35002 ft 452 kts 335°
2026-04-24 01:01 46.40284 11.34012 33822 ft 454 kts 335°
2026-04-24 01:01 46.44876 11.30084 32598 ft 455 kts 334°
2026-04-24 01:02 46.49448 11.26161 31360 ft 457 kts 334°
2026-04-24 01:02 46.53896 11.22344 30099 ft 460 kts 334°
2026-04-24 01:02 46.58234 11.18614 28866 ft 458 kts 334°
2026-04-24 01:02 46.62941 11.14547 27853 ft 449 kts 334°
2026-04-24 01:03 46.67381 11.10707 26943 ft 442 kts 334°
2026-04-24 01:03 46.71624 11.07037 26065 ft 435 kts 334°
2026-04-24 01:03 46.75779 11.03431 25220 ft 429 kts 334°
2026-04-24 01:03 46.77914 11.01576 24778 ft 427 kts 334°
2026-04-24 01:04 46.79929 10.99823 24332 ft 425 kts 334°
2026-04-24 01:04 46.81987 10.98028 23899 ft 422 kts 334°
2026-04-24 01:04 46.83379 10.96806 23579 ft 421 kts 332°